星链-2538 (STARLINK-2538 )

导读

STARLINK-2538是美国SpaceX公司星链星座的V1.5批次卫星,于2021年4月29日由猎鹰9号火箭发射。它运行在近地轨道,重量约295公斤,配备氪离子霍尔推进器,搭载Ku/Ka波段相控阵天线,部分批次配备激光星间链路,旨在为全球偏远地区提供高速低延迟宽带互联网服务,设计寿命约5年,退役后会再入大气层完全烧毁。

Basic Information
目录编号:
48300
目录名称:
STARLINK-2538
国际标识:
2021-036AA
轨道中心:
EARTH
卫星名称:
星链-2538
卫星全名:
星链-2538 (STARLINK-2538 )
卫星状态:
在轨 (已飞行1876 天)
发射日期:
2021-04-29 UTC
国别 :
美国 (US)
星等 :
--
Orbit Information
数据来源 国际轨道数据 AOE轨道数据
星历时间 2026-06-17T23:23:51+0800
1天前
查看轨道信息
2026-06-14T09:00:00+0800
4天前
查看轨道信息
半长轴 6848.875km 6848.968km
偏心率 0.0001146 0.0001187
轨道倾角 53.160° 53.160°
近地点辐角 105.432° 81.104°
升交点赤经 343.181° 359.940°
平近点角 254.681° 217.597°
近地点 469.953km 470.018km
远地点 471.523km 471.644km
周期 94.013分钟 94.015分钟
每日圈数 15.31701 15.316695
Detailed Information
固有亮度:
5
最大亮度:
2.5
卫星平台:
Starlink V1.0
覆盖范围:
全球
运营商:
太空探索技术公司
运营商所在国:
美国
制造商(研发单位):
太空探索技术公司
制造商所在国:
美国
使用方式:
暂无
Satellite Introduction
星链(Starlink)计划是由太空探索技术公司(SpaceX)提出的一个巨型低轨卫星互联网星座项目,计划在2019年至2024年间在太空搭建由约1.2万颗卫星组成的“星链”网络,其中1584颗将部署在地球上空550千米处的近地轨道,并从2020年开始工作。该卫星仍在工作。
2D Orbit Map
3D Orbit Map
Orbit Altitude Analysis Chart
Orbit Inclination Analysis Chart
Orbit Comprehensive Analysis Chart
View Comprehensive Chart